Weather History for Mt. Pocono, PA

Change the Weather History Date:

Friday, October 26, 2012

  Actual Average Record
Temperature  
Mean Temperature 55 °F 46 °F  
Max Temperature 56 °F 55 °F 77 °F (1963)
Min Temperature 53 °F 36 °F 18 °F (1952)
Degree Days  
Heating Degree Days 10 20  
Month to date heating degree days 357 419  
Since 1 July heating degree days 575 687  
Cooling Degree Days 0 0  
Month to date cooling degree days 0 0  
Year to date cooling degree days 453 313  
Growing Degree Days 4 (Base 50)    
Moisture  
Dew Point 53 °F    
Average Humidity 93    
Maximum Humidity 100    
Minimum Humidity 86    
Precipitation  
Precipitation 0.00 in 0.10 in 3.57 in (1943)
Month to date precipitation 5.72 3.54  
Year to date precipitation 39.43 39.88  
Sea Level Pressure  
Sea Level Pressure 30.19 in    
Wind  
Wind Speed 4 mph (SSW)    
Max Wind Speed 10 mph    
Max Gust Speed 13 mph    
Visibility 3 miles    
Events      
T = Trace of Precipitation, MM = Missing Value Source: NWS Daily Summary

Daily Weather History Graph

Daily Weather History Graph

Search for Another Location

Airport:

Trip Planner

Search our weather history database for the weather conditions in past years. The results will help you decide how hot, cold, wet, or windy it might be!

Date:

Astronomy

Oct. 26, 2012 Rise Set
Actual Time 7:26 AM EDT 6:04 PM EDT
Civil Twilight 6:57 AM EDT 6:32 PM EDT
Nautical Twilight 6:25 AM EDT 7:04 PM EDT
Astronomical Twilight 5:53 AM EDT 7:36 PM EDT
Moon 4:19 PM EDT (10/26) 4:18 AM EDT (10/26)
Length of Visible Light 11h 34m
Length of Day
10h 38m
Waxing Gibbous, 91% of the Moon is Illuminated
Oct 26
Waxing Gibbous
Oct 29
Full
Nov 6
Last Quarter
Nov 13
New
Nov 20
First Quarter

Hourly Weather History & Observations

Time (EDT) Temp. Dew Point Humidity Pressure Visibility Wind Dir Wind Speed Gust Speed Precip Events Conditions
12:53 AM 53.1 °F 52.0 °F 96% 30.22 in 1.5 mi South 10.4 mph - 0.01 in   Overcast
1:39 AM 53.6 °F 53.6 °F 100% 30.21 in 2.0 mi South 5.8 mph - N/A   Overcast
1:53 AM 53.1 °F 53.1 °F 100% 30.22 in 3.0 mi South 5.8 mph - N/A   Overcast
2:40 AM 53.6 °F 53.6 °F 100% 30.22 in 2.0 mi South 5.8 mph - N/A   Overcast
3:53 AM 53.1 °F 53.1 °F 100% 30.22 in 3.0 mi SSW 5.8 mph - N/A   Overcast
4:03 AM 53.6 °F 53.6 °F 100% 30.21 in 2.5 mi South 8.1 mph - N/A   Overcast
4:23 AM 53.6 °F 53.6 °F 100% 30.21 in 3.0 mi SSW 5.8 mph - N/A   Overcast
4:53 AM 53.1 °F 53.1 °F 100% 30.22 in 2.0 mi South 5.8 mph - N/A   Overcast
5:24 AM 53.6 °F 51.8 °F 94% 30.20 in 3.0 mi SSW 4.6 mph - N/A   Overcast
5:40 AM 53.6 °F 53.6 °F 100% 30.20 in 2.5 mi SSW 5.8 mph - N/A   Overcast
5:53 AM 53.1 °F 53.1 °F 100% 30.21 in 2.5 mi SSW 5.8 mph - N/A   Overcast
6:07 AM 53.6 °F 53.6 °F 100% 30.20 in 1.5 mi SSW 8.1 mph - N/A   Overcast
6:22 AM 53.6 °F 51.8 °F 94% 30.20 in 2.5 mi WSW 4.6 mph - N/A   Overcast
6:33 AM 53.6 °F 51.8 °F 94% 30.20 in 3.0 mi SW 4.6 mph - N/A   Overcast
6:53 AM 53.1 °F 52.0 °F 96% 30.22 in 3.0 mi SW 3.5 mph - N/A   Overcast
7:29 AM 53.6 °F 53.6 °F 100% 30.22 in 2.5 mi SW 4.6 mph - N/A   Overcast
7:43 AM 53.6 °F 53.6 °F 100% 30.22 in 3.0 mi SSW 5.8 mph - N/A   Overcast
7:51 AM 53.6 °F 53.6 °F 100% 30.22 in 2.5 mi SW 4.6 mph - N/A   Overcast
7:53 AM 54.0 °F 53.1 °F 97% 30.23 in 2.5 mi SW 3.5 mph - N/A   Overcast
8:15 AM 53.6 °F 53.6 °F 100% 30.23 in 3.0 mi WSW 6.9 mph - N/A   Overcast
8:27 AM 53.6 °F 53.6 °F 100% 30.23 in 2.0 mi SW 4.6 mph - N/A   Overcast
8:35 AM 53.6 °F 53.6 °F 100% 30.23 in 1.5 mi SW 6.9 mph - N/A   Overcast
8:53 AM 54.0 °F 53.1 °F 97% 30.24 in 2.0 mi SW 6.9 mph - N/A   Overcast
9:53 AM 54.0 °F 53.1 °F 97% 30.23 in 2.5 mi SSW 6.9 mph - N/A   Overcast
10:10 AM 55.4 °F 53.6 °F 94% 30.22 in 3.0 mi SW 4.6 mph - N/A   Overcast
10:53 AM 55.0 °F 53.1 °F 93% 30.22 in 3.0 mi SW 6.9 mph - N/A   Overcast
11:53 AM 55.0 °F 53.1 °F 93% 30.23 in 4.0 mi SSW 6.9 mph - N/A   Overcast
12:44 PM 55.4 °F 53.6 °F 94% 30.21 in 2.5 mi SSW 8.1 mph - N/A   Overcast
12:53 PM 55.0 °F 54.0 °F 96% 30.21 in 2.5 mi SSW 8.1 mph - N/A   Overcast
1:10 PM 55.4 °F 53.6 °F 94% 30.19 in 1.8 mi SSW 6.9 mph - N/A   Overcast
1:18 PM 55.4 °F 53.6 °F 94% 30.19 in 2.5 mi SSW 5.8 mph - N/A   Overcast
1:27 PM 55.4 °F 53.6 °F 94% 30.19 in 4.0 mi South 5.8 mph - N/A   Overcast
1:51 PM 55.4 °F 53.6 °F 94% 30.18 in 4.0 mi SSW 6.9 mph - N/A   Overcast
1:53 PM 55.9 °F 53.1 °F 90% 30.18 in 4.0 mi SW 6.9 mph - N/A   Overcast
2:53 PM 55.9 °F 53.1 °F 90% 30.17 in 4.0 mi SSW 5.8 mph - N/A   Overcast
3:34 PM 55.4 °F 53.6 °F 94% 30.15 in 6.0 mi SSW 5.8 mph - N/A   Overcast
3:53 PM 55.9 °F 53.1 °F 90% 30.15 in 6.0 mi South 4.6 mph - N/A   Overcast
4:46 PM 55.4 °F 51.8 °F 88% 30.14 in 7.0 mi SSW 4.6 mph - N/A   Overcast
4:53 PM 55.9 °F 52.0 °F 87% 30.14 in 7.0 mi Calm Calm - N/A   Overcast
5:53 PM 55.9 °F 53.1 °F 90% 30.14 in 7.0 mi Calm Calm - N/A   Overcast
6:53 PM 55.0 °F 54.0 °F 96% 30.15 in 4.0 mi Calm Calm - N/A   Overcast
7:53 PM 55.0 °F 54.0 °F 96% 30.16 in 3.0 mi Calm Calm - N/A   Overcast
8:17 PM 55.4 °F 53.6 °F 94% 30.15 in 2.5 mi Calm Calm - N/A   Overcast
8:26 PM 55.4 °F 53.6 °F 94% 30.15 in 2.5 mi Calm Calm - N/A   Overcast
8:40 PM 55.4 °F 53.6 °F 94% 30.15 in 3.0 mi Calm Calm - N/A   Overcast
8:53 PM 55.9 °F 54.0 °F 93% 30.16 in 3.0 mi Calm Calm - N/A   Overcast
9:53 PM 55.0 °F 54.0 °F 96% 30.15 in 5.0 mi Calm Calm - N/A   Overcast
10:09 PM 55.4 °F 53.6 °F 94% 30.14 in 5.0 mi Calm Calm - N/A   Overcast
10:53 PM 55.0 °F 54.0 °F 96% 30.14 in 4.0 mi Calm Calm - N/A   Overcast
11:53 PM 54.0 °F 53.1 °F 97% 30.13 in 2.5 mi Calm Calm - N/A   Overcast